Change the Weather History Date:

Tuesday, January 22, 2013

  Actual Average Record
Temperature  
Mean Temperature 26 °F -  
Max Temperature 53 °F 36 °F 53 °F (2003)
Min Temperature -2 °F 22 °F -2 °F (1988)
Degree Days  
Heating Degree Days 40    
Moisture  
Dew Point 2 °F    
Average Humidity 89    
Maximum Humidity 100    
Minimum Humidity 16    
Precipitation  
Precipitation 0.00 in - - ()
Sea Level Pressure  
Sea Level Pressure 30.41 in    
Wind  
Wind Speed 0 mph (SE)    
Max Wind Speed 4 mph    
Max Gust Speed -    
Visibility 2 miles    
Events Fog    
Averages and records for this station are not official NWS values.
T = Trace of Precipitation, MM = Missing Value Source: NWS Daily Summary

Daily Weather History Graph

Daily Weather History Graph

Search for Another Location

Airport or City:

Trip Planner

Search our weather history database for the weather conditions in past years. The results will help you decide how hot, cold, wet, or windy it might be!

Date:

Astronomy

Jan. 22, 2013 Rise Set
Actual Time 7:43 AM MST 5:34 PM MST
Civil Twilight 7:14 AM MST 6:03 PM MST
Nautical Twilight 6:41 AM MST 6:36 PM MST
Astronomical Twilight 6:08 AM MST 7:08 PM MST
Moon 1:59 PM MST (1/22) 4:08 AM MST (1/22)
Length of Visible Light 10h 49m
Length of Day
9h 50m
Waxing Gibbous, 83% of the Moon is Illuminated
Jan 22
Waxing Gibbous
Jan 26
Full
Feb 3
Last Quarter
Feb 10
New
Feb 17
First Quarter

Hourly Weather History & Observations

Time (MST) Temp. Windchill Dew Point Humidity Pressure Visibility Wind Dir Wind Speed Gust Speed Precip Events Conditions
12:15 AM 3.2 °F - 1.4 °F 92% 30.43 in 1.5 mi Calm Calm - N/A   Clear
12:35 AM 3.2 °F - 3.2 °F 100% 30.43 in 1.8 mi Calm Calm - N/A   Clear
12:55 AM 1.4 °F - -2.2 °F 85% 30.43 in 1.5 mi Calm Calm - N/A   Clear
1:15 AM 1.4 °F - 1.4 °F 100% 30.43 in 2.0 mi Calm Calm - N/A   Clear
1:35 AM 1.4 °F - -2.2 °F 85% 30.43 in 1.5 mi Calm Calm - N/A   Clear
1:55 AM 1.4 °F - 1.4 °F 100% 30.43 in 1.5 mi Calm Calm - N/A   Clear
2:15 AM 3.2 °F - 1.4 °F 92% 30.43 in 1.8 mi Calm Calm - N/A   Clear
2:35 AM 1.4 °F - -0.4 °F 92% 30.45 in 1.5 mi Calm Calm - N/A   Clear
2:55 AM 1.4 °F - 1.4 °F 100% 30.45 in 2.0 mi Calm Calm - N/A   Clear
3:15 AM 1.4 °F - -2.2 °F 85% 30.45 in 2.0 mi Calm Calm - N/A   Clear
3:35 AM 1.4 °F - -0.4 °F 92% 30.45 in 2.0 mi Calm Calm - N/A   Clear
3:55 AM 1.4 °F - -2.2 °F 85% 30.45 in 2.5 mi Calm Calm - N/A   Clear
4:35 AM 1.4 °F - -2.2 °F 85% 30.44 in 2.0 mi Calm Calm - N/A   Clear
4:55 AM -0.4 °F - -5.8 °F 78% 30.44 in 2.5 mi Calm Calm - N/A   Clear
5:15 AM -0.4 °F - -2.2 °F 92% 30.44 in 1.5 mi Calm Calm - N/A   Clear
5:35 AM -0.4 °F - -4.0 °F 85% 30.43 in 0.2 mi Calm Calm - N/A   Unknown
5:55 AM -2.2 °F - -4.0 °F 92% 30.43 in 0.2 mi Calm Calm - N/A   Unknown
6:15 AM -2.2 °F - -5.8 °F 85% 30.43 in 0.2 mi Calm Calm - N/A   Unknown
6:35 AM -2.2 °F - -2.2 °F 100% 30.43 in 0.2 mi Calm Calm - N/A   Unknown
6:47 AM -2.2 °F - -2.2 °F 100% 30.42 in 0.2 mi Calm Calm - N/A Fog Light Freezing Fog
7:48 AM -2.2 °F - -5.8 °F 85% 30.42 in 0.2 mi Calm Calm - N/A Fog Light Freezing Fog
8:47 AM 1.4 °F - 1.4 °F 100% 30.44 in 0.2 mi Calm Calm - N/A Fog Light Freezing Fog
9:47 AM 3.2 °F - 3.2 °F 100% 30.44 in 0.8 mi Calm Calm - N/A   Clear
10:47 AM 5.0 °F - 5.0 °F 100% 30.44 in 1.0 mi Calm Calm - N/A   Clear
11:50 AM 8.6 °F - 5.0 °F 85% 30.41 in 1.5 mi Calm Calm - N/A   Haze
12:53 PM 12.2 °F - 10.4 °F 92% 30.39 in 2.0 mi Calm Calm - N/A   Haze
1:50 PM 12.2 °F - 8.6 °F 85% 30.38 in 2.0 mi Calm Calm - N/A   Haze
3:50 PM 15.8 °F - 8.6 °F 73% 30.35 in 2.0 mi Calm Calm - N/A   Haze
4:47 PM 12.2 °F - 8.6 °F 85% 30.34 in 2.0 mi Calm Calm - N/A   Haze
5:55 PM 12.2 °F - 8.6 °F 85% 30.34 in 2.0 mi Calm Calm - N/A   Haze
6:52 PM 53.6 °F - 8.6 °F 16% 30.34 in 2.0 mi Calm Calm - N/A   Haze
7:52 PM 10.4 °F - 8.6 °F 92% 30.35 in 1.5 mi Calm Calm - N/A   Haze
8:47 PM 10.4 °F - 8.6 °F 92% 30.35 in 1.5 mi Calm Calm - N/A   Clear
9:15 PM 6.8 °F - 5.0 °F 92% 30.36 in 1.5 mi Calm Calm - N/A   Clear
9:35 PM 8.6 °F - 6.8 °F 92% 30.37 in 1.8 mi Calm Calm - N/A   Clear
9:55 PM 6.8 °F - 6.8 °F 100% 30.37 in 1.5 mi Calm Calm - N/A   Clear
10:15 PM 5.0 °F - 3.2 °F 92% 30.37 in 1.5 mi Calm Calm - N/A   Clear
10:35 PM 6.8 °F -0.1 °F 6.8 °F 100% 30.37 in 1.8 mi SE 3.5 mph - N/A   Clear
10:55 PM 5.0 °F - 1.4 °F 85% 30.37 in 2.0 mi Calm Calm - N/A   Clear
11:15 PM 3.2 °F - 1.4 °F 92% 30.38 in 2.0 mi Calm Calm - N/A   Clear
11:35 PM 5.0 °F - 1.4 °F 85% 30.36 in 1.8 mi Calm Calm - N/A   Clear